Cook, MN

6:10 AM CST on February 21, 2018 (GMT -0600)
Cook Municipal

Weather History for KCQM - October, 2012

Change the Weather History Date:

Saturday, October 6, 2012

  Actual Average Record
Temperature  
Mean Temperature 35 °F -  
Max Temperature 42 °F 55 °F 78 °F (2004)
Min Temperature 28 °F 34 °F 21 °F (1999)
Degree Days  
Heating Degree Days 30    
Moisture  
Dew Point 27 °F    
Average Humidity 76    
Maximum Humidity 100    
Minimum Humidity 49    
Precipitation  
Precipitation 0.00 in - - ()
Sea Level Pressure  
Sea Level Pressure 30.16 in    
Wind  
Wind Speed 5 mph (WNW)    
Max Wind Speed 12 mph    
Max Gust Speed 17 mph    
Visibility 10 miles    
Events Snow    
Averages and records for this station are not official NWS values.
T = Trace of Precipitation, MM = Missing Value Source: NWS Daily Summary

Daily Weather History Graph

Daily Weather History Graph

Search for Another Location

Airport or City:

Trip Planner

Search our weather history database for the weather conditions in past years. The results will help you decide how hot, cold, wet, or windy it might be!

Date:

Astronomy

Oct. 06, 2012 Rise Set
Actual Time 7:17 AM CDT 6:38 PM CDT
Civil Twilight 6:46 AM CDT 7:09 PM CDT
Nautical Twilight 6:10 AM CDT 7:45 PM CDT
Astronomical Twilight 5:34 AM CDT 8:21 PM CDT
Moon 10:35 PM CDT (10/6) 1:32 PM CDT (10/6)
Length of Visible Light 12h 23m
Length of Day
11h 21m
Waning Gibbous, 65% of the Moon is Illuminated
Oct 6
Waning Gibbous
Oct 8
Last Quarter
Oct 15
New
Oct 21
First Quarter
Oct 29
Full

Hourly Weather History & Observations

Time (CDT) Temp. Windchill Dew Point Humidity Pressure Visibility Wind Dir Wind Speed Gust Speed Precip Events Conditions
12:16 AM 30.2 °F - 28.4 °F 93% 30.09 in 10.0 mi Calm Calm - N/A   Mostly Cloudy
12:37 AM 30.2 °F - 28.4 °F 93% 30.09 in 10.0 mi Calm Calm - N/A   Scattered Clouds
12:56 AM 30.2 °F 25.4 °F 28.4 °F 93% 30.10 in 10.0 mi NW 4.6 mph - N/A   Scattered Clouds
1:17 AM 30.2 °F 24.3 °F 28.4 °F 93% 30.10 in 10.0 mi NW 5.8 mph - N/A   Mostly Cloudy
1:56 AM 30.2 °F 25.4 °F 30.2 °F 100% 30.11 in 5.0 mi NW 4.6 mph - N/A Snow Light Snow
2:17 AM 30.2 °F 23.4 °F 30.2 °F 100% 30.11 in 4.0 mi NW 6.9 mph - N/A Snow Light Snow
2:36 AM 32.0 °F 27.5 °F 30.2 °F 93% 30.11 in 10.0 mi NW 4.6 mph - N/A   Overcast
2:57 AM 32.0 °F 28.7 °F 30.2 °F 93% 30.12 in 10.0 mi NW 3.5 mph - N/A   Overcast
3:17 AM 32.0 °F 27.5 °F 28.4 °F 87% 30.12 in 10.0 mi NW 4.6 mph - N/A   Overcast
3:37 AM 32.0 °F 25.6 °F 28.4 °F 87% 30.12 in 10.0 mi NW 6.9 mph - N/A   Overcast
3:57 AM 32.0 °F 27.5 °F 28.4 °F 87% 30.12 in 10.0 mi NW 4.6 mph - N/A   Overcast
4:37 AM 32.0 °F 27.5 °F 28.4 °F 87% 30.13 in 10.0 mi NW 4.6 mph - N/A   Overcast
4:57 AM 32.0 °F 26.4 °F 28.4 °F 87% 30.13 in 10.0 mi NW 5.8 mph - N/A   Overcast
5:16 AM 32.0 °F 27.5 °F 28.4 °F 87% 30.14 in 10.0 mi NW 4.6 mph - N/A   Overcast
5:37 AM 32.0 °F 26.4 °F 28.4 °F 87% 30.14 in 10.0 mi NW 5.8 mph - N/A   Overcast
5:57 AM 32.0 °F 26.4 °F 28.4 °F 87% 30.15 in 10.0 mi NW 5.8 mph - N/A   Overcast
6:16 AM 32.0 °F 25.6 °F 28.4 °F 87% 30.15 in 10.0 mi NNW 6.9 mph - N/A   Mostly Cloudy
6:37 AM 32.0 °F 26.4 °F 28.4 °F 87% 30.16 in 10.0 mi WNW 5.8 mph - N/A   Overcast
6:57 AM 32.0 °F 27.5 °F 28.4 °F 87% 30.16 in 10.0 mi NW 4.6 mph - N/A   Overcast
7:16 AM 32.0 °F 27.5 °F 28.4 °F 87% 30.17 in 10.0 mi NW 4.6 mph - N/A   Overcast
7:37 AM 30.2 °F 26.7 °F 28.4 °F 93% 30.17 in 10.0 mi WNW 3.5 mph - N/A   Scattered Clouds
7:57 AM 30.2 °F 26.7 °F 28.4 °F 93% 30.18 in 10.0 mi WNW 3.5 mph - N/A   Scattered Clouds
8:16 AM 30.2 °F 25.4 °F 28.4 °F 93% 30.19 in 10.0 mi West 4.6 mph - N/A   Mostly Cloudy
8:37 AM 30.2 °F 25.4 °F 28.4 °F 93% 30.19 in 10.0 mi WNW 4.6 mph - N/A   Overcast
9:16 AM 32.0 °F 26.4 °F 30.2 °F 93% 30.21 in 10.0 mi West 5.8 mph - N/A   Overcast
9:37 AM 33.8 °F 29.6 °F 30.2 °F 87% 30.21 in 10.0 mi WNW 4.6 mph - N/A   Overcast
9:57 AM 33.8 °F 28.6 °F 30.2 °F 87% 30.22 in 10.0 mi WNW 5.8 mph - N/A   Overcast
10:16 AM 33.8 °F 26.4 °F 30.2 °F 87% 30.22 in 10.0 mi WNW 9.2 mph - N/A   Overcast
10:36 AM 33.8 °F 27.7 °F 30.2 °F 87% 30.22 in 10.0 mi WNW 6.9 mph - N/A   Overcast
10:57 AM 35.6 °F 29.2 °F 30.2 °F 81% 30.22 in 10.0 mi WNW 8.1 mph - N/A   Overcast
11:17 AM 37.4 °F 30.8 °F 30.2 °F 75% 30.22 in 10.0 mi NW 9.2 mph - N/A   Overcast
11:37 AM 37.4 °F 30.8 °F 28.4 °F 70% 30.22 in 10.0 mi WNW 9.2 mph 17.3 mph N/A   Overcast
11:57 AM 39.2 °F 32.5 °F 30.2 °F 70% 30.22 in 10.0 mi WNW 10.4 mph - N/A   Overcast
12:16 PM 37.4 °F 31.4 °F 28.4 °F 70% 30.22 in 10.0 mi WNW 8.1 mph - N/A   Overcast
12:37 PM 37.4 °F 30.8 °F 28.4 °F 70% 30.23 in 10.0 mi NW 9.2 mph - N/A   Overcast
12:56 PM 37.4 °F 30.8 °F 28.4 °F 70% 30.22 in 10.0 mi WNW 9.2 mph 16.1 mph N/A   Mostly Cloudy
1:17 PM 41.0 °F 35.8 °F 26.6 °F 57% 30.22 in 10.0 mi NW 8.1 mph - N/A   Mostly Cloudy
1:37 PM 41.0 °F 34.3 °F 26.6 °F 57% 30.21 in 10.0 mi NW 11.5 mph 17.3 mph N/A   Mostly Cloudy
1:57 PM 41.0 °F 35.2 °F 26.6 °F 57% 30.20 in 10.0 mi WNW 9.2 mph - N/A   Scattered Clouds
2:16 PM 39.2 °F 32.5 °F 24.8 °F 56% 30.19 in 10.0 mi NW 10.4 mph - N/A   Mostly Cloudy
2:37 PM 41.0 °F 35.8 °F 24.8 °F 53% 30.19 in 10.0 mi West 8.1 mph - N/A   Mostly Cloudy
2:57 PM 42.8 °F 38.6 °F 24.8 °F 49% 30.18 in 10.0 mi WNW 6.9 mph - N/A   Mostly Cloudy
3:16 PM 41.0 °F 36.4 °F 24.8 °F 53% 30.18 in 10.0 mi WNW 6.9 mph 16.1 mph N/A   Overcast
3:37 PM 42.8 °F 37.0 °F 24.8 °F 49% 30.18 in 10.0 mi West 10.4 mph - N/A   Overcast
3:57 PM 42.8 °F 37.5 °F 24.8 °F 49% 30.18 in 10.0 mi WNW 9.2 mph - N/A   Overcast
4:16 PM 41.0 °F 35.2 °F 24.8 °F 53% 30.17 in 10.0 mi WNW 9.2 mph - N/A   Overcast
4:37 PM 42.8 °F 38.0 °F 24.8 °F 49% 30.17 in 10.0 mi WNW 8.1 mph - N/A   Overcast
4:57 PM 42.8 °F 38.0 °F 26.6 °F 53% 30.17 in 10.0 mi West 8.1 mph 16.1 mph N/A   Overcast
5:16 PM 41.0 °F 34.7 °F 26.6 °F 57% 30.17 in 10.0 mi West 10.4 mph 17.3 mph N/A   Overcast
5:37 PM 41.0 °F 34.7 °F 26.6 °F 57% 30.17 in 10.0 mi West 10.4 mph - N/A   Overcast
5:57 PM 39.2 °F 33.6 °F 26.6 °F 61% 30.17 in 10.0 mi WNW 8.1 mph - N/A   Mostly Cloudy
6:16 PM 39.2 °F 32.5 °F 24.8 °F 56% 30.16 in 10.0 mi West 10.4 mph - N/A   Scattered Clouds
6:37 PM 37.4 °F 32.8 °F 24.8 °F 60% 30.16 in 10.0 mi WNW 5.8 mph - N/A   Clear
6:57 PM 37.4 °F 32.1 °F 24.8 °F 60% 30.17 in 10.0 mi West 6.9 mph - N/A   Clear
7:16 PM 35.6 °F 32.8 °F 24.8 °F 65% 30.17 in 10.0 mi WNW 3.5 mph - N/A   Clear
7:36 PM 33.8 °F 29.6 °F 24.8 °F 70% 30.16 in 10.0 mi West 4.6 mph - N/A   Clear
7:57 PM 33.8 °F - 24.8 °F 70% 30.16 in 10.0 mi Calm Calm - N/A   Clear
8:16 PM 32.0 °F 28.7 °F 23.0 °F 69% 30.16 in 10.0 mi West 3.5 mph - N/A   Clear
8:37 PM 30.2 °F 26.7 °F 23.0 °F 75% 30.16 in 10.0 mi West 3.5 mph - N/A   Clear
8:56 PM 30.2 °F - 23.0 °F 75% 30.16 in 10.0 mi Calm Calm - N/A   Clear
9:17 PM 30.2 °F 26.7 °F 23.0 °F 75% 30.15 in 10.0 mi SW 3.5 mph - N/A   Clear
9:37 PM 30.2 °F 25.4 °F 23.0 °F 75% 30.15 in 10.0 mi WSW 4.6 mph - N/A   Clear
9:56 PM 30.2 °F 26.7 °F 24.8 °F 80% 30.15 in 10.0 mi WSW 3.5 mph - N/A   Clear
10:17 PM 30.2 °F 26.7 °F 24.8 °F 80% 30.15 in 10.0 mi SW 3.5 mph - N/A   Clear
10:37 PM 30.2 °F 26.7 °F 24.8 °F 80% 30.14 in 10.0 mi SW 3.5 mph - N/A   Clear
10:56 PM 30.2 °F 26.7 °F 24.8 °F 80% 30.14 in 10.0 mi WSW 3.5 mph - N/A   Clear
11:17 PM 30.2 °F 26.7 °F 24.8 °F 80% 30.13 in 10.0 mi SW 3.5 mph - N/A   Clear
11:37 PM 28.4 °F 24.6 °F 24.8 °F 86% 30.12 in 10.0 mi SW 3.5 mph - N/A   Clear
11:56 PM 28.4 °F 24.6 °F 24.8 °F 86% 30.11 in 10.0 mi SW 3.5 mph - N/A   Clear